| time (UTC) | temp F | wind direction | speed knots | gust knots | rain 1hr in | rain 24hr in | rain mn in | humidity % | barometer mb |
| 20260509181004 | 67 | 135 | 0.9 | 2.6 | 0.00 | 0.00 | 0.00 | 68 | 1016.2 |
| 20260509180504 | 67 | 90 | 0.9 | 3.5 | 0.00 | 0.00 | 0.00 | 69 | 1016.3 |
| 20260509180004 | 66 | 45 | 0.9 | 3.5 | 0.00 | 0.00 | 0.00 | 69 | 1016.2 |
| 20260509175504 | 65 | 45 | 0.9 | 2.6 | 0.00 | 0.00 | 0.00 | 71 | 1016.3 |
| 20260509175004 | 65 | 45 | 1.7 | 3.5 | 0.00 | 0.00 | 0.00 | 70 | 1016.3 |
| 20260509174504 | 65 | 113 | 1.7 | 3.5 | 0.00 | 0.00 | 0.00 | 70 | 1016.4 |
| 20260509174004 | 65 | 68 | 1.7 | 3.5 | 0.00 | 0.00 | 0.00 | 70 | 1016.5 |
| 20260509173504 | 65 | 68 | 0.9 | 3.5 | 0.00 | 0.00 | 0.00 | 70 | 1016.6 |
| 20260509173004 | 65 | 45 | 1.7 | 3.5 | 0.00 | 0.00 | 0.00 | 70 | 1016.5 |
| 20260509172504 | 65 | 113 | 1.7 | 3.5 | 0.00 | 0.00 | 0.00 | 70 | 1016.5 |
| 20260509172004 | 65 | 68 | 1.7 | 3.5 | 0.00 | 0.00 | 0.00 | 70 | 1016.5 |
| 20260509171524 | 65 | 68 | 1.7 | 4.3 | 0.00 | 0.00 | 0.00 | 71 | 1016.4 |
| 20260509171024 | 64 | 68 | 0.9 | 2.6 | 0.00 | 0.00 | 0.00 | 72 | 1016.4 |
| 20260509170504 | 64 | 68 | 0.9 | 3.5 | 0.00 | 0.00 | 0.00 | 72 | 1016.4 |
| 20260509170024 | 64 | 135 | 0.9 | 2.6 | 0.00 | 0.00 | 0.00 | 72 | 1016.4 |
| 20260509165524 | 64 | 45 | 1.7 | 4.3 | 0.00 | 0.00 | 0.00 | 72 | 1016.4 |
| 20260509165004 | 64 | 68 | 1.7 | 3.5 | 0.00 | 0.00 | 0.00 | 71 | 1016.4 |
| 20260509164504 | 64 | 113 | 1.7 | 4.3 | 0.00 | 0.00 | 0.00 | 73 | 1016.5 |
| 20260509164004 | 63 | 113 | 0.9 | 1.7 | 0.00 | 0.00 | 0.00 | 74 | 1016.5 |
| 20260509163524 | 63 | 90 | 0.9 | 2.6 | 0.00 | 0.00 | 0.00 | 73 | 1016.5 |
| 20260509163004 | 63 | 68 | 0.9 | 2.6 | 0.00 | 0.00 | 0.00 | 73 | 1016.6 |
| 20260509162524 | 63 | 68 | 0.9 | 2.6 | 0.00 | 0.00 | 0.00 | 73 | 1016.5 |
| 20260509162004 | 63 | 315 | 0.9 | 2.6 | 0.00 | 0.00 | 0.00 | 73 | 1016.5 |
| 20260509161504 | 62 | 113 | 0.9 | 2.6 | 0.00 | 0.00 | 0.00 | 74 | 1016.6 |
| 20260509161004 | 62 | 113 | 0.9 | 1.7 | 0.00 | 0.00 | 0.00 | 75 | 1016.5 |
| 20260509160504 | 61 | 45 | 0.9 | 1.7 | 0.00 | 0.00 | 0.00 | 77 | 1016.6 |
| 20260509160004 | 60 | 248 | 0.9 | 1.7 | 0.00 | 0.00 | 0.00 | 78 | 1016.6 |
| 20260509155504 | 59 | 180 | 0.9 | 1.7 | 0.00 | 0.00 | 0.00 | 79 | 1016.6 |
| 20260509155004 | 58 | 113 | 0.9 | 1.7 | 0.00 | 0.00 | 0.00 | 81 | 1016.6 |
| 20260509154504 | 58 | 135 | 0.9 | 1.7 | 0.00 | 0.00 | 0.00 | 81 | 1016.6 |
| 20260509154004 | 58 | 135 | 0.9 | 1.7 | 0.00 | 0.00 | 0.00 | 81 | 1016.6 |
| 20260509153524 | 58 | 180 | 0.9 | 1.7 | 0.00 | 0.00 | 0.00 | 81 | 1016.7 |
| 20260509153004 | 58 | 180 | 0.9 | 1.7 | 0.00 | 0.00 | 0.00 | 82 | 1016.6 |
| 20260509152503 | 58 | 225 | 0.9 | 1.7 | 0.00 | 0.00 | 0.00 | 83 | 1016.6 |
| 20260509152024 | 57 | 158 | 0.9 | 2.6 | 0.00 | 0.00 | 0.00 | 83 | 1016.6 |
| 20260509151504 | 57 | 158 | 0.9 | 1.7 | 0.00 | 0.00 | 0.00 | 84 | 1016.6 |
| 20260509151004 | 57 | 158 | 0.9 | 2.6 | 0.00 | 0.00 | 0.00 | 84 | 1016.6 |
| 20260509150503 | 56 | 225 | 0.9 | 1.7 | 0.00 | 0.00 | 0.00 | 85 | 1016.7 |
| 20260509150044 | 56 | 203 | 0.9 | 2.6 | 0.00 | 0.00 | 0.00 | 86 | 1016.5 |
| 20260509145504 | 56 | 203 | 0.9 | 2.6 | 0.00 | 0.00 | 0.00 | 87 | 1016.7 |
| 20260509145004 | 56 | 180 | 0.9 | 1.7 | 0.00 | 0.00 | 0.00 | 88 | 1016.6 |
| 20260509144504 | 56 | 135 | 0.9 | 2.6 | 0.00 | 0.00 | 0.00 | 88 | 1016.6 |
| 20260509144004 | 55 | 203 | 0.9 | 1.7 | 0.00 | 0.00 | 0.00 | 88 | 1016.6 |
| 20260509143524 | 55 | 180 | 0.9 | 2.6 | 0.00 | 0.00 | 0.00 | 89 | 1016.4 |
| 20260509143003 | 55 | 158 | 0.9 | 1.7 | 0.00 | 0.00 | 0.00 | 89 | 1016.6 |
| 20260509142504 | 55 | 225 | 0.9 | 1.7 | 0.00 | 0.00 | 0.00 | 89 | 1016.5 |
| 20260509142004 | 55 | 203 | 0.9 | 2.6 | 0.00 | 0.00 | 0.00 | 89 | 1016.6 |
| 20260509141504 | 55 | 203 | 0.9 | 2.6 | 0.00 | 0.00 | 0.00 | 89 | 1016.6 |
| 20260509141004 | 55 | 0.0 | 1.7 | 0.00 | 0.00 | 0.00 | 89 | 1016.5 | |
| 20260509140503 | 54 | 0.0 | 1.7 | 0.00 | 0.00 | 0.00 | 89 | 1016.5 | |
| 20260509140005 | 54 | 203 | 0.9 | 1.7 | 0.00 | 0.00 | 0.00 | 90 | 1016.4 |
| 20260509135503 | 54 | 0.0 | 1.7 | 0.00 | 0.00 | 0.00 | 90 | 1016.3 | |
| 20260509135004 | 54 | 135 | 0.9 | 1.7 | 0.00 | 0.00 | 0.00 | 90 | 1016.2 |
| 20260509134503 | 54 | 0.0 | 0.9 | 0.00 | 0.00 | 0.00 | 90 | 1016.2 | |
| 20260509134003 | 54 | 203 | 0.9 | 1.7 | 0.00 | 0.00 | 0.00 | 90 | 1016.3 |
| 20260509133503 | 54 | 0.0 | 1.7 | 0.00 | 0.00 | 0.00 | 90 | 1016.3 | |
| 20260509133004 | 54 | 203 | 0.9 | 2.6 | 0.00 | 0.00 | 0.00 | 90 | 1016.1 |
| 20260509132524 | 54 | 0.0 | 1.7 | 0.00 | 0.00 | 0.00 | 90 | 1016.2 | |
| 20260509132004 | 54 | 0.0 | 0.9 | 0.00 | 0.00 | 0.00 | 90 | 1016.1 | |
| 20260509131503 | 54 | 135 | 0.9 | 1.7 | 0.00 | 0.00 | 0.00 | 90 | 1016.1 |
| 20260509131003 | 54 | 0.0 | 1.7 | 0.00 | 0.00 | 0.00 | 90 | 1016.1 | |
| 20260509130504 | 54 | 0.0 | 0.9 | 0.00 | 0.00 | 0.00 | 90 | 1016.1 | |
| 20260509130003 | 54 | 0.0 | 1.7 | 0.00 | 0.00 | 0.00 | 90 | 1016.2 | |
| 20260509125543 | 54 | 0.0 | 1.7 | 0.00 | 0.00 | 0.00 | 90 | 1016.1 | |
| 20260509125003 | 54 | 0.0 | 0.9 | 0.00 | 0.00 | 0.00 | 90 | 1016.1 | |
| 20260509124504 | 54 | 0.0 | 0.9 | 0.00 | 0.00 | 0.00 | 90 | 1016.2 | |
| 20260509124004 | 54 | 180 | 0.9 | 1.7 | 0.00 | 0.00 | 0.00 | 90 | 1016.1 |
| 20260509123503 | 54 | 0.0 | 1.7 | 0.00 | 0.00 | 0.00 | 91 | 1016.0 | |
| 20260509123003 | 54 | 0.0 | 0.9 | 0.00 | 0.00 | 0.00 | 91 | 1016.1 | |
| 20260509122503 | 54 | 0.0 | 0.9 | 0.00 | 0.00 | 0.00 | 91 | 1016.1 | |
| 20260509122003 | 54 | 225 | 0.9 | 1.7 | 0.00 | 0.00 | 0.00 | 91 | 1016.1 |
| 20260509121503 | 54 | 225 | 0.9 | 1.7 | 0.00 | 0.00 | 0.00 | 91 | 1016.1 |
| 20260509121003 | 54 | 0.0 | 1.7 | 0.00 | 0.00 | 0.00 | 91 | 1016.2 | |
| 20260509120503 | 54 | 0.0 | 0.9 | 0.00 | 0.00 | 0.00 | 91 | 1016.2 | |
| 20260509120144 | 54 | 0.0 | 0.9 | 0.00 | 0.00 | 0.00 | 91 | 1016.2 | |
| 20260509115503 | 54 | 158 | 0.9 | 1.7 | 0.00 | 0.00 | 0.00 | 91 | 1016.2 |
| 20260509115003 | 54 | 135 | 0.9 | 1.7 | 0.00 | 0.00 | 0.00 | 91 | 1016.2 |
| 20260509114503 | 54 | 203 | 0.9 | 1.7 | 0.00 | 0.00 | 0.00 | 91 | 1016.1 |
| 20260509114003 | 54 | 113 | 0.9 | 1.7 | 0.00 | 0.00 | 0.00 | 91 | 1016.2 |
| 20260509113503 | 53 | 0.0 | 0.9 | 0.00 | 0.00 | 0.00 | 91 | 1016.2 | |
| 20260509113003 | 53 | 0.0 | 0.9 | 0.00 | 0.00 | 0.00 | 91 | 1016.2 | |
| 20260509112503 | 53 | 0.0 | 1.7 | 0.00 | 0.00 | 0.00 | 91 | 1016.1 | |
| 20260509112003 | 53 | 0.0 | 0.9 | 0.00 | 0.00 | 0.00 | 91 | 1016.1 | |
| 20260509111503 | 53 | 113 | 0.9 | 3.5 | 0.00 | 0.00 | 0.00 | 91 | 1016.1 |
| 20260509111003 | 53 | 113 | 0.9 | 2.6 | 0.00 | 0.00 | 0.00 | 91 | 1016.1 |
| 20260509110503 | 53 | 0.0 | 1.7 | 0.00 | 0.00 | 0.00 | 91 | 1016.1 | |
| 20260509110003 | 53 | 0.0 | 0.9 | 0.00 | 0.00 | 0.00 | 91 | 1016.0 | |
| 20260509105503 | 53 | 0.0 | 0.9 | 0.00 | 0.00 | 0.00 | 91 | 1016.0 | |
| 20260509105003 | 53 | 0.0 | 0.9 | 0.00 | 0.00 | 0.00 | 91 | 1016.1 | |
| 20260509104523 | 53 | 0.0 | 0.9 | 0.00 | 0.00 | 0.00 | 91 | 1016.1 | |
| 20260509104003 | 53 | 0.0 | 1.7 | 0.00 | 0.00 | 0.00 | 91 | 1016.0 | |
| 20260509103505 | 53 | 0.0 | 0.9 | 0.00 | 0.00 | 0.00 | 91 | 1016.1 | |
| 20260509103005 | 53 | 0.0 | 0.9 | 0.00 | 0.00 | 0.00 | 91 | 1016.1 | |
| 20260509102525 | 52 | 0.0 | 0.9 | 0.00 | 0.00 | 0.00 | 91 | 1016.3 | |
| 20260509102005 | 52 | 0.0 | 0.9 | 0.00 | 0.00 | 0.00 | 91 | 1016.2 | |
| 20260509101505 | 52 | 0.0 | 0.9 | 0.00 | 0.00 | 0.00 | 91 | 1016.3 | |
| 20260509101025 | 52 | 0.0 | 0.9 | 0.00 | 0.00 | 0.00 | 91 | 1017.0 | |
| 20260509100505 | 52 | 0.0 | 0.9 | 0.00 | 0.00 | 0.00 | 91 | 1016.5 | |
| 20260509100005 | 52 | 0.0 | 0.9 | 0.00 | 0.00 | 0.00 | 90 | 1016.4 | |
| 20260509095505 | 52 | 0.0 | 0.9 | 0.00 | 0.00 | 0.00 | 90 | 1016.3 | |
| 20260509095005 | 51 | 0.0 | 0.9 | 0.00 | 0.00 | 0.00 | 90 | 1016.3 | |
| 20260509094525 | 51 | 0.0 | 0.9 | 0.00 | 0.00 | 0.00 | 90 | 1016.3 | |
| 20260509094004 | 51 | 0.0 | 0.9 | 0.00 | 0.00 | 0.00 | 90 | 1016.4 | |
| 20260509093525 | 51 | 0.0 | 0.9 | 0.00 | 0.00 | 0.00 | 90 | 1016.5 | |
| 20260509093005 | 51 | 0.0 | 0.9 | 0.00 | 0.00 | 0.00 | 89 | 1016.4 | |
| 20260509092505 | 51 | 0.0 | 0.9 | 0.00 | 0.00 | 0.00 | 89 | 1016.5 | |
| 20260509092005 | 51 | 0.0 | 0.9 | 0.00 | 0.00 | 0.00 | 89 | 1016.6 | |
| 20260509091505 | 51 | 0.0 | 0.9 | 0.00 | 0.00 | 0.00 | 89 | 1016.6 | |
| 20260509091005 | 51 | 0.0 | 0.9 | 0.00 | 0.00 | 0.00 | 89 | 1016.6 | |
| 20260509090504 | 51 | 0.0 | 0.9 | 0.00 | 0.00 | 0.00 | 88 | 1016.5 | |
| 20260509090005 | 51 | 0.0 | 0.9 | 0.00 | 0.00 | 0.00 | 88 | 1016.7 | |
| 20260509085505 | 51 | 0.0 | 0.9 | 0.00 | 0.00 | 0.00 | 88 | 1016.7 | |
| 20260509085005 | 51 | 0.0 | 0.9 | 0.00 | 0.00 | 0.00 | 88 | 1016.6 | |
| 20260509084525 | 51 | 0.0 | 0.9 | 0.00 | 0.00 | 0.00 | 88 | 1016.6 | |
| 20260509084005 | 51 | 0.0 | 0.9 | 0.00 | 0.00 | 0.00 | 87 | 1016.8 | |
| 20260509083525 | 51 | 0.0 | 0.9 | 0.00 | 0.00 | 0.00 | 87 | 1016.8 | |
| 20260509083004 | 51 | 0.0 | 0.9 | 0.00 | 0.00 | 0.00 | 87 | 1016.8 | |
| 20260509082525 | 51 | 0.0 | 0.9 | 0.00 | 0.00 | 0.00 | 87 | 1016.8 | |
| 20260509082005 | 51 | 0.0 | 0.9 | 0.00 | 0.00 | 0.00 | 87 | 1016.9 | |
| 20260509081504 | 51 | 0.0 | 0.9 | 0.00 | 0.00 | 0.00 | 86 | 1016.9 | |
| 20260509081005 | 51 | 0.0 | 1.7 | 0.00 | 0.00 | 0.00 | 86 | 1016.8 | |
| 20260509080504 | 51 | 0.0 | 1.7 | 0.00 | 0.00 | 0.00 | 86 | 1016.9 | |
| 20260509080006 | 51 | 0.0 | 0.9 | 0.00 | 0.00 | 0.00 | 86 | 1017.0 | |
| 20260509075505 | 51 | 0.0 | 0.9 | 0.00 | 0.00 | 0.00 | 86 | 1017.0 | |
| 20260509075004 | 51 | 0.0 | 0.9 | 0.00 | 0.00 | 0.00 | 86 | 1017.0 | |
| 20260509074505 | 52 | 0.0 | 0.9 | 0.00 | 0.00 | 0.00 | 86 | 1017.1 | |
| 20260509074004 | 52 | 0.0 | 0.9 | 0.00 | 0.00 | 0.00 | 86 | 1016.9 | |
| 20260509073504 | 52 | 0.0 | 0.9 | 0.00 | 0.00 | 0.00 | 86 | 1017.0 | |
| 20260509073004 | 52 | 0.0 | 0.9 | 0.00 | 0.00 | 0.00 | 86 | 1017.0 | |
| 20260509072504 | 52 | 0.0 | 0.9 | 0.00 | 0.00 | 0.00 | 86 | 1017.0 | |
| 20260509072004 | 52 | 0.0 | 0.9 | 0.00 | 0.00 | 0.00 | 86 | 1017.0 | |
| 20260509071505 | 52 | 0.0 | 0.9 | 0.00 | 0.00 | 0.00 | 85 | 1016.9 | |
| 20260509071004 | 53 | 0.0 | 0.9 | 0.00 | 0.00 | 0.00 | 85 | 1017.0 | |
| 20260509070504 | 53 | 0.0 | 0.9 | 0.00 | 0.00 | 0.00 | 85 | 1017.1 | |
| 20260509070006 | 53 | 0.0 | 0.9 | 0.00 | 0.00 | 0.00 | 85 | 1017.1 | |
| 20260509065504 | 53 | 0.0 | 0.9 | 0.00 | 0.00 | 0.00 | 84 | 1017.1 | |
| 20260509065004 | 53 | 0.0 | 0.9 | 0.00 | 0.00 | 0.00 | 84 | 1017.2 | |
| 20260509064504 | 53 | 0.0 | 0.9 | 0.00 | 0.00 | 0.00 | 84 | 1017.2 | |
| 20260509064004 | 53 | 0.0 | 0.9 | 0.00 | 0.00 | 0.00 | 84 | 1017.3 | |
| 20260509063504 | 53 | 0.0 | 0.9 | 0.00 | 0.00 | 0.00 | 84 | 1017.2 | |
| 20260509063005 | 54 | 0.0 | 0.9 | 0.00 | 0.00 | 0.00 | 84 | 1017.4 | |
| 20260509062504 | 54 | 0.0 | 0.9 | 0.00 | 0.00 | 0.00 | 84 | 1017.3 | |
| 20260509062004 | 54 | 0.0 | 0.9 | 0.00 | 0.00 | 0.00 | 83 | 1017.3 | |
| 20260509061504 | 54 | 0.0 | 1.7 | 0.00 | 0.00 | 0.00 | 83 | 1017.3 | |
| 20260509061024 | 54 | 0.0 | 0.9 | 0.00 | 0.00 | 0.00 | 83 | 1017.4 | |
| 20260509060504 | 54 | 0.0 | 0.9 | 0.00 | 0.00 | 0.00 | 83 | 1017.4 | |
| 20260509060004 | 54 | 0.0 | 0.9 | 0.00 | 0.00 | 0.00 | 83 | 1017.3 | |
| 20260509055504 | 54 | 338 | 0.9 | 1.7 | 0.00 | 0.00 | 0.00 | 83 | 1017.5 |
| 20260509055004 | 54 | 0.0 | 1.7 | 0.00 | 0.00 | 0.00 | 83 | 1017.5 | |
| 20260509054004 | 54 | 0.0 | 1.7 | 0.00 | 0.00 | 0.00 | 82 | 1017.4 | |
| 20260509053504 | 54 | 0.0 | 0.9 | 0.00 | 0.00 | 0.00 | 82 | 1017.5 | |
| 20260509053009 | 54 | 0.0 | 0.9 | 0.00 | 0.00 | 0.00 | 82 | 1017.5 | |
| 20260509052504 | 54 | 0.0 | 0.9 | 0.00 | 0.00 | 0.00 | 81 | 1017.5 | |
| 20260509052004 | 54 | 0.0 | 1.7 | 0.00 | 0.00 | 0.00 | 81 | 1017.5 | |
| 20260509051504 | 55 | 0.0 | 0.9 | 0.00 | 0.00 | 0.00 | 81 | 1017.5 | |
| 20260509051024 | 55 | 0.0 | 0.9 | 0.00 | 0.00 | 0.00 | 80 | 1017.5 | |
| 20260509050504 | 55 | 0.0 | 0.9 | 0.00 | 0.00 | 0.00 | 80 | 1017.6 | |
| 20260509050044 | 55 | 0.0 | 0.9 | 0.00 | 0.00 | 0.00 | 80 | 1017.6 | |
| 20260509045504 | 55 | 0.0 | 0.9 | 0.00 | 0.00 | 0.00 | 79 | 1017.5 | |
| 20260509045004 | 55 | 0.0 | 1.7 | 0.00 | 0.00 | 0.00 | 79 | 1017.4 | |
| 20260509044504 | 56 | 0.0 | 0.9 | 0.00 | 0.00 | 0.00 | 78 | 1017.3 | |
| 20260509044004 | 56 | 0.0 | 0.9 | 0.00 | 0.00 | 0.00 | 78 | 1017.3 | |
| 20260509043504 | 56 | 0.0 | 0.9 | 0.00 | 0.00 | 0.00 | 78 | 1017.3 | |
| 20260509043004 | 56 | 0.0 | 0.9 | 0.00 | 0.00 | 0.00 | 78 | 1017.3 | |
| 20260509042504 | 56 | 0.0 | 1.7 | 0.00 | 0.00 | 0.00 | 78 | 1017.2 | |
| 20260509042024 | 56 | 0.0 | 1.7 | 0.00 | 0.00 | 0.00 | 78 | 1017.2 | |
| 20260509041504 | 57 | 0.0 | 0.9 | 0.00 | 0.00 | 0.00 | 78 | 1017.1 | |
| 20260509041004 | 57 | 45 | 0.9 | 1.7 | 0.00 | 0.00 | 0.00 | 78 | 1017.1 |
| 20260509040524 | 57 | 0.0 | 0.9 | 0.00 | 0.00 | 0.00 | 77 | 1017.1 | |
| 20260509040004 | 57 | 0.0 | 1.7 | 0.00 | 0.00 | 0.00 | 77 | 1017.0 | |
| 20260509035524 | 57 | 45 | 0.9 | 1.7 | 0.00 | 0.00 | 0.00 | 77 | 1017.1 |
| 20260509035004 | 57 | 45 | 0.9 | 1.7 | 0.00 | 0.00 | 0.00 | 77 | 1017.0 |
| 20260509034504 | 57 | 45 | 0.9 | 2.6 | 0.00 | 0.00 | 0.00 | 77 | 1017.1 |
| 20260509034004 | 58 | 45 | 0.9 | 4.3 | 0.00 | 0.00 | 0.00 | 77 | 1017.0 |
| 20260509033504 | 58 | 45 | 1.7 | 2.6 | 0.00 | 0.00 | 0.00 | 76 | 1016.9 |
| 20260509033004 | 58 | 45 | 0.9 | 2.6 | 0.00 | 0.00 | 0.00 | 76 | 1017.0 |
| 20260509032505 | 58 | 45 | 0.9 | 2.6 | 0.00 | 0.00 | 0.00 | 76 | 1016.9 |
| 20260509032024 | 58 | 45 | 1.7 | 2.6 | 0.00 | 0.00 | 0.00 | 76 | 1016.9 |
| 20260509031504 | 59 | 45 | 1.7 | 3.5 | 0.00 | 0.00 | 0.00 | 76 | 1016.9 |
| 20260509031024 | 59 | 45 | 0.9 | 2.6 | 0.00 | 0.00 | 0.00 | 76 | 1016.9 |
| 20260509030524 | 59 | 45 | 0.9 | 3.5 | 0.00 | 0.00 | 0.00 | 76 | 1016.8 |
| 20260509030004 | 59 | 45 | 0.9 | 2.6 | 0.00 | 0.00 | 0.00 | 76 | 1016.9 |
| 20260509025504 | 59 | 45 | 0.9 | 2.6 | 0.00 | 0.00 | 0.00 | 76 | 1016.8 |
| 20260509025024 | 59 | 45 | 1.7 | 3.5 | 0.00 | 0.00 | 0.00 | 77 | 1016.7 |
| 20260509024524 | 60 | 45 | 1.7 | 3.5 | 0.00 | 0.00 | 0.00 | 77 | 1016.7 |
| 20260509024044 | 60 | 45 | 0.9 | 3.5 | 0.00 | 0.00 | 0.00 | 78 | 1016.7 |
| 20260509023504 | 60 | 45 | 1.7 | 4.3 | 0.00 | 0.00 | 0.00 | 77 | 1016.6 |
| 20260509023004 | 60 | 45 | 1.7 | 3.5 | 0.00 | 0.00 | 0.00 | 77 | 1016.6 |
| 20260509022504 | 61 | 45 | 1.7 | 3.5 | 0.00 | 0.00 | 0.00 | 76 | 1016.6 |
| 20260509022003 | 61 | 45 | 1.7 | 3.5 | 0.00 | 0.00 | 0.00 | 75 | 1016.5 |
| 20260509021503 | 61 | 45 | 1.7 | 4.3 | 0.00 | 0.00 | 0.00 | 75 | 1016.4 |
| 20260509021003 | 61 | 45 | 1.7 | 6.1 | 0.00 | 0.00 | 0.00 | 75 | 1016.5 |
| 20260509020503 | 62 | 45 | 1.7 | 6.1 | 0.00 | 0.00 | 0.00 | 75 | 1016.4 |
| 20260509020003 | 62 | 45 | 2.6 | 6.1 | 0.00 | 0.00 | 0.00 | 75 | 1016.3 |
| 20260509015504 | 62 | 45 | 2.6 | 5.2 | 0.00 | 0.00 | 0.00 | 74 | 1016.4 |
| 20260509015004 | 62 | 45 | 1.7 | 4.3 | 0.00 | 0.00 | 0.00 | 75 | 1016.4 |
| 20260509014504 | 62 | 45 | 2.6 | 5.2 | 0.00 | 0.00 | 0.00 | 74 | 1016.5 |
| 20260509014024 | 63 | 45 | 1.7 | 6.1 | 0.00 | 0.00 | 0.00 | 74 | 1016.4 |
| 20260509013503 | 63 | 45 | 2.6 | 7.0 | 0.00 | 0.00 | 0.00 | 74 | 1016.5 |
| 20260509013004 | 63 | 45 | 2.6 | 7.8 | 0.00 | 0.00 | 0.00 | 74 | 1016.4 |
| 20260509012523 | 63 | 45 | 3.5 | 7.0 | 0.00 | 0.00 | 0.00 | 73 | 1016.5 |
| 20260509012003 | 64 | 45 | 2.6 | 7.0 | 0.00 | 0.00 | 0.00 | 72 | 1016.3 |
| 20260509011503 | 64 | 23 | 3.5 | 7.8 | 0.00 | 0.00 | 0.00 | 72 | 1016.5 |
| 20260509011004 | 64 | 45 | 3.5 | 6.1 | 0.00 | 0.00 | 0.00 | 72 | 1016.4 |
| 20260509010503 | 65 | 45 | 3.5 | 6.1 | 0.00 | 0.00 | 0.00 | 71 | 1016.5 |
| 20260509010004 | 65 | 45 | 3.5 | 7.0 | 0.00 | 0.00 | 0.00 | 71 | 1016.6 |
| 20260509005503 | 66 | 45 | 2.6 | 5.2 | 0.00 | 0.00 | 0.00 | 70 | 1016.5 |
| 20260509005003 | 66 | 45 | 2.6 | 6.1 | 0.00 | 0.00 | 0.00 | 70 | 1016.5 |
| 20260509004504 | 66 | 45 | 2.6 | 6.1 | 0.00 | 0.00 | 0.00 | 69 | 1016.6 |
| 20260509004024 | 67 | 45 | 2.6 | 6.1 | 0.00 | 0.00 | 0.00 | 69 | 1016.7 |
| 20260509003503 | 67 | 45 | 2.6 | 6.1 | 0.00 | 0.00 | 0.00 | 68 | 1016.6 |
| 20260509003003 | 67 | 45 | 2.6 | 6.1 | 0.00 | 0.00 | 0.00 | 67 | 1016.8 |
| 20260509002503 | 68 | 45 | 2.6 | 7.0 | 0.00 | 0.00 | 0.00 | 66 | 1016.7 |
| 20260509002004 | 68 | 45 | 2.6 | 6.1 | 0.00 | 0.00 | 0.00 | 66 | 1016.7 |
| 20260509001503 | 68 | 338 | 2.6 | 6.1 | 0.00 | 0.00 | 0.00 | 65 | 1016.8 |
| 20260509001004 | 67 | 338 | 3.5 | 7.8 | 0.00 | 0.00 | 0.00 | 67 | 1016.9 |
| 20260509000503 | 67 | 45 | 2.6 | 6.1 | 0.00 | 0.00 | 0.00 | 68 | 1016.8 |
| 20260509000004 | 67 | 45 | 2.6 | 7.8 | 0.00 | 0.00 | 0.00 | 69 | 1016.8 |
| 20260508235503 | 67 | 45 | 3.5 | 6.1 | 0.00 | 0.00 | 0.00 | 68 | 1016.7 |
| 20260508235023 | 67 | 45 | 2.6 | 7.8 | 0.00 | 0.00 | 0.00 | 68 | 1016.9 |
| 20260508234503 | 67 | 45 | 3.5 | 8.7 | 0.00 | 0.00 | 0.00 | 68 | 1016.8 |
| 20260508234003 | 67 | 45 | 3.5 | 9.6 | 0.00 | 0.00 | 0.00 | 68 | 1016.9 |
| 20260508233503 | 67 | 45 | 2.6 | 7.0 | 0.00 | 0.00 | 0.00 | 67 | 1017.0 |
| 20260508233023 | 67 | 45 | 2.6 | 7.0 | 0.00 | 0.00 | 0.00 | 68 | 1016.9 |
| 20260508232503 | 67 | 45 | 3.5 | 9.6 | 0.00 | 0.00 | 0.00 | 68 | 1017.0 |
| 20260508232003 | 67 | 45 | 3.5 | 7.8 | 0.00 | 0.00 | 0.00 | 68 | 1017.0 |
| 20260508231503 | 67 | 45 | 3.5 | 7.8 | 0.00 | 0.00 | 0.00 | 68 | 1017.0 |
| 20260508231003 | 67 | 45 | 3.5 | 7.8 | 0.00 | 0.00 | 0.00 | 67 | 1017.0 |
| 20260508230503 | 67 | 45 | 3.5 | 7.0 | 0.00 | 0.00 | 0.00 | 67 | 1017.1 |
| 20260508230003 | 68 | 45 | 2.6 | 9.6 | 0.00 | 0.00 | 0.00 | 67 | 1017.3 |
| 20260508225503 | 68 | 45 | 3.5 | 7.8 | 0.00 | 0.00 | 0.00 | 67 | 1017.3 |
| 20260508225003 | 68 | 338 | 3.5 | 11.3 | 0.00 | 0.00 | 0.00 | 66 | 1017.4 |
| 20260508224503 | 68 | 338 | 2.6 | 6.1 | 0.00 | 0.00 | 0.00 | 67 | 1017.4 |
| 20260508224003 | 68 | 45 | 3.5 | 7.0 | 0.00 | 0.00 | 0.00 | 66 | 1017.5 |
| 20260508223523 | 67 | 45 | 3.5 | 7.0 | 0.00 | 0.00 | 0.00 | 67 | 1017.5 |
| 20260508223003 | 67 | 45 | 3.5 | 8.7 | 0.00 | 0.00 | 0.00 | 69 | 1017.5 |
| 20260508222503 | 67 | 45 | 2.6 | 8.7 | 0.00 | 0.00 | 0.00 | 69 | 1017.7 |
| 20260508222023 | 66 | 45 | 3.5 | 8.7 | 0.00 | 0.00 | 0.00 | 69 | 1017.9 |
| 20260508221503 | 66 | 45 | 2.6 | 7.0 | 0.00 | 0.00 | 0.00 | 69 | 1017.9 |
| 20260508221003 | 66 | 45 | 3.5 | 9.6 | 0.00 | 0.00 | 0.00 | 69 | 1018.1 |
| 20260508220503 | 66 | 45 | 2.6 | 7.8 | 0.00 | 0.00 | 0.00 | 69 | 1018.0 |
| 20260508220003 | 66 | 45 | 2.6 | 7.0 | 0.00 | 0.00 | 0.00 | 70 | 1018.0 |
| 20260508215503 | 66 | 45 | 3.5 | 7.8 | 0.00 | 0.00 | 0.00 | 70 | 1018.1 |
| 20260508215023 | 66 | 45 | 2.6 | 7.0 | 0.00 | 0.00 | 0.00 | 70 | 1018.1 |
| 20260508214503 | 66 | 68 | 3.5 | 7.8 | 0.00 | 0.00 | 0.00 | 70 | 1018.3 |
| 20260508214003 | 66 | 45 | 3.5 | 7.8 | 0.00 | 0.00 | 0.00 | 69 | 1018.3 |
| 20260508213543 | 66 | 45 | 2.6 | 7.8 | 0.00 | 0.00 | 0.00 | 69 | 1018.3 |
| 20260508213003 | 66 | 45 | 3.5 | 7.0 | 0.00 | 0.00 | 0.00 | 69 | 1018.4 |
| 20260508212503 | 66 | 45 | 2.6 | 7.0 | 0.00 | 0.00 | 0.00 | 71 | 1018.5 |
| 20260508212003 | 65 | 45 | 3.5 | 7.8 | 0.00 | 0.00 | 0.00 | 70 | 1018.6 |
| 20260508211504 | 66 | 45 | 3.5 | 8.7 | 0.00 | 0.00 | 0.00 | 69 | 1018.6 |
| 20260508211023 | 66 | 45 | 3.5 | 7.8 | 0.00 | 0.00 | 0.00 | 71 | 1018.6 |
| 20260508210503 | 65 | 45 | 2.6 | 6.1 | 0.00 | 0.00 | 0.00 | 71 | 1018.8 |
| 20260508210003 | 65 | 68 | 3.5 | 7.8 | 0.00 | 0.00 | 0.00 | 72 | 1018.8 |
| 20260508205503 | 65 | 45 | 2.6 | 7.8 | 0.00 | 0.00 | 0.00 | 72 | 1019.0 |
| 20260508205023 | 64 | 45 | 3.5 | 7.8 | 0.00 | 0.00 | 0.00 | 73 | 1019.0 |
| 20260508204503 | 64 | 68 | 3.5 | 9.6 | 0.00 | 0.00 | 0.00 | 74 | 1019.0 |
| 20260508204003 | 64 | 45 | 3.5 | 8.7 | 0.00 | 0.00 | 0.00 | 73 | 1019.1 |
| 20260508203503 | 64 | 68 | 3.5 | 8.7 | 0.00 | 0.00 | 0.00 | 73 | 1019.1 |
| 20260508203022 | 64 | 45 | 2.6 | 7.0 | 0.00 | 0.00 | 0.00 | 74 | 1019.2 |
| 20260508202503 | 64 | 45 | 3.5 | 7.8 | 0.00 | 0.00 | 0.00 | 73 | 1019.3 |
| 20260508202003 | 64 | 68 | 3.5 | 7.8 | 0.00 | 0.00 | 0.00 | 73 | 1019.2 |
| 20260508201523 | 64 | 45 | 2.6 | 7.0 | 0.00 | 0.00 | 0.00 | 74 | 1019.2 |
| 20260508201003 | 64 | 45 | 3.5 | 7.8 | 0.00 | 0.00 | 0.00 | 73 | 1019.2 |
| 20260508200505 | 64 | 45 | 3.5 | 7.0 | 0.00 | 0.00 | 0.00 | 74 | 1019.3 |
| 20260508200025 | 64 | 45 | 3.5 | 7.8 | 0.00 | 0.00 | 0.00 | 74 | 1019.2 |
| 20260508195505 | 64 | 45 | 2.6 | 7.0 | 0.00 | 0.00 | 0.00 | 74 | 1019.2 |
| 20260508195005 | 64 | 45 | 3.5 | 7.0 | 0.00 | 0.00 | 0.00 | 74 | 1019.3 |
| 20260508194545 | 64 | 45 | 3.5 | 8.7 | 0.00 | 0.00 | 0.00 | 74 | 1019.3 |
| 20260508194025 | 65 | 45 | 3.5 | 8.7 | 0.00 | 0.00 | 0.00 | 73 | 1019.4 |
| 20260508193505 | 65 | 45 | 2.6 | 7.0 | 0.00 | 0.00 | 0.00 | 74 | 1019.2 |
| 20260508193005 | 64 | 45 | 2.6 | 7.8 | 0.00 | 0.00 | 0.00 | 74 | 1019.4 |
| 20260508192505 | 64 | 68 | 2.6 | 7.0 | 0.00 | 0.00 | 0.00 | 75 | 1019.5 |
| 20260508192005 | 64 | 68 | 3.5 | 9.6 | 0.00 | 0.00 | 0.00 | 74 | 1019.5 |
| 20260508191505 | 64 | 45 | 3.5 | 9.6 | 0.00 | 0.00 | 0.00 | 73 | 1019.4 |
| 20260508191025 | 64 | 68 | 2.6 | 7.0 | 0.00 | 0.00 | 0.00 | 74 | 1019.5 |
| 20260508190524 | 63 | 68 | 2.6 | 7.0 | 0.00 | 0.00 | 0.00 | 74 | 1019.4 |
| 20260508190005 | 63 | 68 | 2.6 | 7.0 | 0.00 | 0.00 | 0.00 | 73 | 1019.5 |
| 20260508185525 | 63 | 45 | 3.5 | 7.8 | 0.00 | 0.00 | 0.00 | 73 | 1019.5 |
| 20260508185005 | 64 | 45 | 2.6 | 6.1 | 0.00 | 0.00 | 0.00 | 73 | 1019.6 |
| 20260508184505 | 63 | 68 | 2.6 | 5.2 | 0.00 | 0.00 | 0.00 | 73 | 1019.7 |
| 20260508184005 | 63 | 68 | 2.6 | 6.1 | 0.00 | 0.00 | 0.00 | 72 | 1019.6 |
| 20260508183505 | 63 | 68 | 2.6 | 7.0 | 0.00 | 0.00 | 0.00 | 72 | 1019.6 |
| 20260508183004 | 63 | 68 | 2.6 | 7.0 | 0.00 | 0.00 | 0.00 | 71 | 1019.6 |
| 20260508182505 | 63 | 45 | 2.6 | 6.1 | 0.00 | 0.00 | 0.00 | 71 | 1019.8 |
| 20260508182025 | 63 | 45 | 1.7 | 5.2 | 0.00 | 0.00 | 0.00 | 71 | 1019.7 |
| 20260508181505 | 64 | 68 | 2.6 | 6.1 | 0.00 | 0.00 | 0.00 | 70 | 1019.7 |